Time,TemperatureF,DewpointF,PressureIn,WindDirection,WindDirectionDegrees,WindSpeedMPH,WindSpeedGustMPH,Humidity,HourlyPrecipIn,Conditions,Clouds,dailyrainin,SoftwareType,DateUTC
2013-04-06 00:05:00,54.0,-99.9,-100.00,WNW,301,5.0,7.0,-999,-99.99,,,-99.99,,2013-04-06 07:05:00,
2013-04-06 00:12:00,54.0,-99.9,30.22,WNW,301,5.0,7.0,-999,-99.99,,,-99.99,,2013-04-06 07:12:00,
2013-04-06 01:02:00,53.0,-99.9,-100.00,SSW,199,3.0,5.0,-999,-99.99,,,-99.99,,2013-04-06 08:02:00,
2013-04-06 01:13:00,53.0,-99.9,30.21,SSW,199,3.0,5.0,-999,-99.99,,,-99.99,,2013-04-06 08:13:00,
2013-04-06 05:03:00,54.0,-99.9,-100.00,North,3,3.0,4.0,-999,-99.99,,,-99.99,,2013-04-06 12:03:00,
2013-04-06 05:13:00,54.0,-99.9,30.19,North,3,3.0,4.0,-999,-99.99,,,-99.99,,2013-04-06 12:13:00,
2013-04-06 06:03:00,53.0,-99.9,-100.00,NNW,333,1.0,2.0,-999,-99.99,,,-99.99,,2013-04-06 13:03:00,
2013-04-06 06:13:00,53.0,-99.9,30.20,NNW,333,1.0,2.0,-999,-99.99,,,-99.99,,2013-04-06 13:13:00,
2013-04-06 10:03:00,56.0,-99.9,-100.00,ENE,64,2.0,3.0,-999,-99.99,,,-99.99,,2013-04-06 17:03:00,
2013-04-06 10:13:00,56.0,-99.9,30.22,ENE,64,2.0,3.0,-999,-99.99,,,-99.99,,2013-04-06 17:13:00,
2013-04-06 11:04:00,55.0,-99.9,-100.00,North,358,5.0,5.0,-999,-99.99,,,-99.99,,2013-04-06 18:04:00,
2013-04-06 11:13:00,55.0,-99.9,30.21,North,358,5.0,5.0,-999,-99.99,,,-99.99,,2013-04-06 18:13:00,
2013-04-06 15:03:00,59.0,-99.9,-100.00,WNW,299,6.0,10.0,-999,-99.99,,,-99.99,,2013-04-06 22:03:00,
2013-04-06 15:13:00,59.0,-99.9,30.19,WNW,299,6.0,10.0,-999,-99.99,,,-99.99,,2013-04-06 22:13:00,
2013-04-06 16:04:00,59.0,-99.9,-100.00,WNW,299,12.0,15.0,-999,-99.99,,,-99.99,,2013-04-06 23:04:00,
2013-04-06 16:14:00,59.0,-99.9,30.18,WNW,299,12.0,15.0,-999,-99.99,,,-99.99,,2013-04-06 23:14:00,
2013-04-06 17:03:00,59.0,-99.9,-100.00,West,273,9.0,15.0,-999,-99.99,,,-99.99,,2013-04-07 00:03:00,
2013-04-06 17:13:00,59.0,-99.9,30.18,West,273,9.0,15.0,-999,-99.99,,,-99.99,,2013-04-07 00:13:00,
2013-04-06 21:03:00,55.0,-99.9,-100.00,South,177,2.0,5.0,-999,-99.99,,,-99.99,,2013-04-07 04:03:00,
2013-04-06 21:15:00,55.0,-99.9,30.19,South,177,2.0,5.0,-999,-99.99,,,-99.99,,2013-04-07 04:15:00,
2013-04-06 22:02:00,55.0,-99.9,-100.00,WNW,294,6.0,9.0,-999,-99.99,,,-99.99,,2013-04-07 05:02:00,
2013-04-06 22:12:00,55.0,-99.9,30.20,WNW,294,6.0,9.0,-999,-99.99,,,-99.99,,2013-04-07 05:12:00,